Weather in Arba Minch

Ethiopia     6°01′27″N   37°32′57″E
temp.,
°C
wind,
m/s
gust,
m/s
humid.,
%
clouds,
%
prec.,
mm/h
press.,
hPa
HPBL,
m
15 april, thu
thu1500:00+18nw217568 0.4 101520
03:00+17nw218067 1.0 101417
06:00+17nw228680 1.1 101527
09:00+22ese1169100 2.1 1015280
12:00+27se234426 1.2 10131883
15:00+28sse333423 1.8 10082335
18:00+23e115763 0.3 101019
21:00+19nw326723 0.4 101332
16 april, fri
fri1600:00+21w226129 0.1 101324
03:00+18nw117183 0.1 101213
06:00+18nw117337 0.2 101312
09:00+22se116313 1.4 1015399
12:00+27sse124618 2.6 10121493
15:00+26se444599 3.4 10101266
18:00+24wnw11577 0.6 101032
21:00+19nw326431 0.6 101334
17 april, sat
sat1700:00+19nw337095 0.2 101357
03:00+18nw227120 0.3 101223
06:00+16wnw22869 0.8 101526
09:00+21ese117074 2.4 1015300
12:00+27s11488 2.4 10131413
15:00+27se4344100 3.8 10092146
18:00+18nw3483100 7.6 1014135
21:00+17nw3276100 8.0 101428
18 april, sun
sun1800:00+17nw2280100 0.0 101629
03:00+16nw228795 1.1 101528
06:00+17n2289100 3.0 101644
09:00+20ne127270 3.1 1017365
12:00+26ese2247100 0.1 10151433
15:00+26ese324350 1.2 10111894
18:00+22ne246149 2.1 1013337
21:00+17w228975 3.8 101687
19 april, mon
mon1900:00+17nw118498 0.0 101714
03:00+17nw2286100 0.9 101540
06:00+17w1183100 0.8 101614
09:00+21s226951 0.9 1017701
12:00+25sse225511 1.8 10151342
15:00+25sse225271 4.3 10111269
18:00+22w1163100 1.2 101213
21:00+17n239032 4.3 101649